This demonstration page uses our WeatherBlox Daily Observations layout. Learn more.

38.88101, -77.10428

Hourly Observations for November 26, 2016

Temp ( °F °C ) Dew Point ( °F °C ) Humidity (%) Winds ( mph kmh ) Pressure ( in mb ) Visibility ( mi km ) Precip ( " mm )
12:52 am 00:52 Cloudy 50 10 43 6.1 77 77 N 8 13 30.18 1022 9 14.484096 0 0
1:52 am 01:52 Mostly Cloudy 49 9.4 41 5 74 74 N 13 20 30.18 1022 10 16.09344 0 0
2:52 am 02:52 Cloudy 49 9.4 41 5 74 74 NNE 13 20 30.18 1022 10 16.09344 0 0
3:52 am 03:52 Partly Cloudy 46 7.8 39 3.9 77 77 N 7 11 30.15 1021 10 16.09344 0 0
4:52 am 04:52 Mostly Cloudy 46 7.8 38 3.3 73 73 N 8 13 30.18 1022 10 16.09344 0 0
5:52 am 05:52 Partly Cloudy 44 6.7 37 2.8 76 76 NNW 8 13 30.18 1022 10 16.09344 0 0
6:52 am 06:52 Mostly Clear 42 5.6 35 1.7 76 76 NNW 7 11 30.21 1023 10 16.09344 0 0
7:52 am 07:52 Mostly Cloudy 45 7.2 33 0.6 63 63 NNW 13 20 30.21 1023 10 16.09344 0 0
8:52 am 08:52 Partly Cloudy 47 8.3 30 -1.1 52 52 NNW 18 30 30.24 1024 10 16.09344 0 0
9:52 am 09:52 Partly Cloudy 49 9.4 30 -1.1 48 48 NNW 17 28 30.24 1024 10 16.09344 0 0
10:52 am 10:52 Mostly Cloudy 50 10 30 -1.1 46 46 WNW 20 31 30.24 1024 10 16.09344 0 0
11:52 am 11:52 Mostly Cloudy 50 10 30 -1.1 46 46 NNW 18 30 30.21 1023 10 16.09344 0 0
12:52 pm 12:52 Mostly Cloudy 51 10.6 30 -1.1 44 44 NW 20 31 30.18 1022 10 16.09344 0 0
1:52 pm 13:52 Mostly Cloudy 50 10 31 -0.6 48 48 NW 16 26 30.18 1022 10 16.09344 0 0
2:52 pm 14:52 Mostly Cloudy 50 10 30 -1.1 46 46 NW 14 22 30.18 1022 10 16.09344 0 0
3:52 pm 15:52 Mostly Cloudy 50 10 29 -1.7 44 44 NW 14 22 30.18 1022 10 16.09344 0 0
4:52 pm 16:52 Mostly Cloudy 49 9.4 29 -1.7 46 46 NW 14 22 30.18 1022 10 16.09344 0 0
5:52 pm 17:52 Partly Cloudy 47 8.3 29 -1.7 50 50 NW 10 17 30.21 1023 10 16.09344 0 0
6:33 pm 18:33 Partly Cloudy 46 7.8 30 -1.1 54 54 NW 7 11 30.21 1023 10 16.09344 0 0
6:52 pm 18:52 Mostly Clear 46 7.8 30 -1.1 54 54 NNW 12 19 30.21 1023 10 16.09344 0 0
7:52 pm 19:52 Mostly Clear 45 7.2 30 -1.1 56 56 WNW 8 13 30.21 1023 10 16.09344 0 0
8:52 pm 20:52 Clear 44 6.7 30 -1.1 58 58 WNW 10 17 30.21 1023 10 16.09344 0 0
9:52 pm 21:52 Clear 43 6.1 31 -0.6 63 63 WNW 10 17 30.21 1023 10 16.09344 0 0
10:52 pm 22:52 Clear 43 6.1 31 -0.6 63 63 WNW 10 17 30.21 1023 10 16.09344 0 0
11:52 pm 23:52 Clear 44 6.7 30 -1.1 58 58 NW 14 22 30.21 1023 10 16.09344 0 0

Powered by AerisWeather